HST 1 20580U 90037B 25031.92070714 .00009523 00000-0 38741-3 0 9990 2 20580 28.4675 247.0180 0002785 25.3951 334.6780 15.22779462711878 ISS (ZARYA) 1 25544U 98067A 25032.16305314 .00016120 00000-0 28210-3 0 9991 2 25544 51.6379 260.7592 0002069 153.7231 352.3252 15.50771351494063 CXO 1 25867U 99040B 25034.57271092 .00000777 00000-0 00000+0 0 9997 2 25867 46.4752 136.7449 8617405 306.6835 0.7290 0.37806517 26591